COSMOS 1275 DEB, 14627

Orbit data source: Space-Track

COSMOS 1275 DEB, 14627 is space debris in LEO originally from a launch on Thu, 04 Jun 1981 UTC launched from the Plesetsk Missile And Space Complex (PKMTR). Debris objects in space refer to the collection of defunct objects orbiting the Earth. Examples of debris include non-operational satellites, rocket bodies, and fragments generated from explosions, collisions, or faulty payload assembly.

Loading next visibility...
Identifier
14627, 1981-053JQ
Orbit
LEO
Country
Flag of CISCIS
Related business
Manufacturer
Unknown
Mission
Spacecraft
Bus & Motor
Unknown
Mass
Unknown
Launch date (UTC)
1981-06-04 (45 years ago)
Launch vehicle
Unknown
Launch site
Plesetsk Missile And Space Complex (PKMTR)
Object type
Payload
Rocket body
Debris
Shape & HBR
Unknown shape, 0.1 m
Radar Cross Section
Small (<0.1 m²)

Expand to show TLE details & history
Last TLE update: 14 hours ago

TLE from 14 hours ago
0 COSMOS 1275 DEB
1 14627U 81053JQ  26034.34732455  .00002063  00000-0  12131-2 0  9996
2 14627  82.7830 152.8370 0029499  39.7550  15.1106 14.07413429142600
Epoch: 2026-02-03T08:20Z
TLE epoch observation values (Epoch: 2026-02-03T08:20:08.841Z)
Latitude
54.41135°
Longitude
-95.5916°
Altitude
856.576 km
Speed
7.44 km/s
True Right ascension
10h 51m 53s
True Declination
54° 15' 02"
Sunlit
Object was in full shadow at epoch
Visualization orbit readout
Latitude
Unknown
Longitude
Unknown
Altitude
Unknown
Speed
Unknown
Apparent Right ascension
Unknown
Apparent Declination
Unknown
Sunlit
N/A
Visualization observer readout
Local Sidereal Time
00:14:48
Azimuth
Unknown
Elevation
Unknown
Doppler factor
Unknown
Orbital elements
Apogee altitude
886.714 km
Perigee altitude
843.979 km
Semi-major axis
7,243.484 km
Eccentricity
0.00295
Inclination
82.783°
RAAN
152.837°
Arg. of periapsis
39.755°
True anomaly
15.19903°
Mean anomaly
15.1106°
Eccentric anomaly
15.15479°
Mean motion
3.52064 °/min
Orbital period
102.25 mins
BSTAR
0.0012131
Loading maneuver chart data...
Computing Atmospheric mass density...
Loading historical data...
Loading historical data...
Loading historical data...
Loading historical data...
Loading historical data...
Loading historical data...
Loading historical data...

Documentation

Showing up to 5 results
|